| time (UTC) | temp C | wind direction | speed KPH | gust KPH | rain 1hr cm | rain 24hr cm | rain mn cm | humidity % | barometer mb |
| 20260505125040 | 36 | 23 | 0.0 | 1.6 | 0.00 | 0.99 | 0.79 | 10 | 1018.7 |
| 20260505124101 | 22 | 23 | 3.2 | 6.4 | 0.00 | 0.99 | 0.79 | 10 | 1018.7 |
| 20260505123044 | 12 | 36 | 3.2 | 3.2 | 0.00 | 0.99 | 0.79 | 99 | 1018.6 |
| 20260505122018 | 12 | 23 | 3.2 | 3.2 | 0.00 | 0.99 | 0.79 | 99 | 1018.7 |
| 20260505121022 | 12 | 90 | 1.6 | 3.2 | 0.00 | 0.99 | 0.79 | 99 | 1018.8 |
| 20260505120017 | 11 | 90 | 1.6 | 3.2 | 0.00 | 0.99 | 0.79 | 99 | 1018.8 |
| 20260505115019 | 21 | 44 | 1.6 | 1.6 | 0.00 | 0.99 | 0.79 | 63 | 1018.9 |
| 20260505114019 | 20 | 23 | 1.6 | 4.8 | 0.00 | 0.99 | 0.79 | 10 | 1019.0 |
| 20260505113024 | 10 | 0.0 | 0.0 | 0.00 | 0.99 | 0.79 | 94 | 1019.3 | |
| 20260505112026 | 26 | 23 | 1.6 | 3.2 | 0.00 | 0.99 | 0.79 | 10 | 1019.3 |
| 20260505111028 | 11 | 23 | 3.2 | 3.2 | 0.00 | 0.99 | 0.79 | 98 | 1019.4 |
| 20260505102044 | 36 | 0.0 | 0.0 | 0.00 | 1.04 | 0.79 | 10 | 1019.4 | |
| 20260505101015 | 36 | 0.0 | 0.0 | 0.00 | 1.04 | 0.79 | 10 | 1019.5 | |
| 20260505100037 | 36 | 23 | 0.0 | 1.6 | 0.00 | 1.04 | 0.79 | 10 | 1019.5 |
| 20260505095043 | 36 | 90 | 0.0 | 1.6 | 0.00 | 1.04 | 0.79 | 10 | 1019.5 |
| 20260505094045 | 36 | 23 | 1.6 | 3.2 | 0.00 | 1.04 | 0.79 | 10 | 1019.5 |
| 20260505093042 | 36 | 0.0 | 0.0 | 0.00 | 1.04 | 0.79 | 10 | 1019.4 | |
| 20260505092107 | 36 | 0.0 | 0.0 | 0.00 | 1.04 | 0.79 | 10 | 1019.4 | |
| 20260505091017 | 36 | 0.0 | 0.0 | 0.00 | 1.04 | 0.79 | 10 | 1019.4 | |
| 20260505090043 | 36 | 180 | 0.0 | 1.6 | 0.00 | 1.04 | 0.79 | 10 | 1019.2 |
| 20260505085041 | 36 | 0.0 | 0.0 | 0.00 | 1.04 | 0.79 | 10 | 1019.2 | |
| 20260505084047 | 36 | 0.0 | 0.0 | 0.00 | 1.04 | 0.79 | 10 | 1019.1 | |
| 20260505083015 | 36 | 180 | 3.2 | 3.2 | 0.00 | 1.04 | 0.79 | 10 | 1019.2 |
| 20260505082023 | 36 | 0.0 | 0.0 | 0.00 | 1.04 | 0.79 | 10 | 1019.1 | |
| 20260505081023 | 36 | 0.0 | 0.0 | 0.00 | 1.04 | 0.79 | 10 | 1019.2 | |
| 20260505080023 | 36 | 0.0 | 0.0 | 0.00 | 1.04 | 0.79 | 10 | 1018.9 | |
| 20260505075030 | 36 | 270 | 1.6 | 3.2 | 0.00 | 1.04 | 0.79 | 10 | 1018.9 |
| 20260505074045 | 36 | 229 | 1.6 | 3.2 | 0.00 | 1.04 | 0.79 | 10 | 1018.8 |
| 20260505073032 | 36 | 234 | 3.2 | 3.2 | 0.00 | 1.04 | 0.79 | 10 | 1018.8 |
| 20260505072053 | 36 | 307 | 1.6 | 3.2 | 0.00 | 1.04 | 0.79 | 10 | 1018.7 |
| 20260505071034 | 36 | 270 | 1.6 | 1.6 | 0.00 | 1.04 | 0.79 | 10 | 1018.7 |
| 20260505070033 | 36 | 270 | 3.2 | 4.8 | 0.00 | 1.04 | 0.79 | 10 | 1018.7 |
| 20260505065036 | 36 | 197 | 3.2 | 4.8 | 0.00 | 1.04 | 0.79 | 10 | 1018.7 |
| 20260505064037 | 36 | 270 | 1.6 | 3.2 | 0.00 | 1.04 | 0.79 | 10 | 1018.6 |
| 20260505063044 | 36 | 225 | 1.6 | 3.2 | 0.00 | 1.04 | 0.79 | 10 | 1018.7 |
| 20260505062103 | 36 | 270 | 1.6 | 3.2 | 0.00 | 1.04 | 0.79 | 10 | 1018.6 |
| 20260505061043 | 36 | 248 | 1.6 | 3.2 | 0.00 | 1.04 | 0.79 | 10 | 1018.4 |
| 20260505060039 | 36 | 246 | 3.2 | 3.2 | 0.00 | 1.04 | 0.79 | 10 | 1018.7 |
| 20260505055102 | 36 | 148 | 4.8 | 6.4 | 0.00 | 1.04 | 0.79 | 10 | 1018.5 |
| 20260505054045 | 36 | 79 | 1.6 | 4.8 | 0.00 | 1.04 | 0.79 | 10 | 1018.2 |
| 20260505053045 | 36 | 219 | 8.0 | 11.3 | 0.00 | 1.04 | 0.79 | 10 | 1018.3 |
| 20260505052019 | 36 | 223 | 4.8 | 8.0 | 0.00 | 1.04 | 0.79 | 10 | 1018.2 |
| 20260505051024 | 36 | 180 | 4.8 | 6.4 | 0.05 | 1.04 | 0.79 | 10 | 1018.2 |
| 20260505041029 | 36 | 225 | 1.6 | 3.2 | 0.30 | 0.99 | 0.74 | 10 | 1018.9 |
| 20260505040027 | 36 | 270 | 0.0 | 1.6 | 0.36 | 0.99 | 0.74 | 10 | 1019.0 |
| 20260505035029 | 36 | 191 | 1.6 | 3.2 | 0.36 | 0.94 | 0.66 | 10 | 1019.3 |
| 20260505034030 | 36 | 241 | 3.2 | 4.8 | 0.36 | 0.84 | 0.56 | 10 | 1019.4 |
| 20260505033027 | 36 | 259 | 1.6 | 3.2 | 0.36 | 0.79 | 0.51 | 10 | 1019.4 |
| 20260505032028 | 36 | 230 | 3.2 | 3.2 | 0.30 | 0.74 | 0.46 | 10 | 1019.6 |
| 20260505031048 | 14 | 225 | 1.6 | 1.6 | 0.30 | 0.66 | 0.41 | 10 | 1019.8 |
| 20260505030037 | 11 | 296 | 3.2 | 3.2 | 0.30 | 0.61 | 0.36 | 10 | 1019.8 |
| 20260505025052 | 3 | 260 | 3.2 | 4.8 | 0.25 | 0.56 | 0.30 | 10 | 1020.0 |
| 20260505024030 | 36 | 0 | 1.6 | 3.2 | 0.15 | 0.46 | 0.20 | 10 | 1020.0 |
| 20260505023029 | 14 | 279 | 4.8 | 4.8 | 0.10 | 0.41 | 0.15 | 10 | 1020.1 |
| 20260505022034 | 1 | 258 | 3.2 | 3.2 | 0.10 | 0.41 | 0.15 | 10 | 1020.2 |
| 20260505021036 | 14 | 270 | 1.6 | 3.2 | 0.05 | 0.36 | 0.10 | 10 | 1020.0 |
| 20260505020028 | 3 | 246 | 1.6 | 4.8 | 0.00 | 0.30 | 0.05 | 10 | 1020.0 |
| 20260505015033 | 1 | 0.0 | 0.0 | 0.00 | 0.30 | 0.05 | 10 | 1019.8 | |
| 20260505014033 | 14 | 270 | 3.2 | 4.8 | 0.00 | 0.30 | 0.05 | 10 | 1019.9 |
| 20260505013032 | -18 | 270 | 3.2 | 3.2 | 0.00 | 0.30 | 0.05 | 10 | 1019.9 |
| 20260505012034 | 25 | 230 | 3.2 | 3.2 | 0.00 | 0.30 | 0.05 | 10 | 1019.9 |
| 20260505011029 | 0 | 232 | 1.6 | 3.2 | 0.00 | 0.30 | 0.05 | 10 | 1020.2 |
| 20260505005537 | 3 | 324 | 3.2 | 4.8 | 0.05 | 0.30 | 0.05 | 10 | 1020.4 |
| 20260505004547 | -2 | 218 | 3.2 | 3.2 | 0.05 | 0.30 | 0.05 | 10 | 1020.6 |
| 20260505003515 | -18 | 225 | 3.2 | 6.4 | 0.05 | 0.30 | 0.05 | 10 | 1020.9 |
| 20260505002525 | -18 | 0.0 | 0.0 | 0.05 | 0.30 | 0.05 | 10 | 1021.1 | |
| 20260505001549 | -18 | 257 | 1.6 | 4.8 | 0.05 | 0.30 | 0.05 | 10 | 1021.4 |
| 20260505000538 | -18 | 90 | 0.0 | 1.6 | 0.00 | 0.25 | 0.00 | 10 | 1021.5 |
| 20260504235544 | -18 | 225 | 4.8 | 4.8 | 0.00 | 0.25 | 0.00 | 10 | 1021.8 |
| 20260504234543 | -18 | 213 | 1.6 | 3.2 | 0.00 | 0.25 | 0.00 | 10 | 1021.9 |
| 20260504233622 | -18 | 230 | 3.2 | 8.0 | 0.00 | 0.25 | 0.00 | 10 | 1022.2 |
| 20260504232604 | -18 | 235 | 4.8 | 6.4 | 0.00 | 0.25 | 0.00 | 10 | 1022.2 |
| 20260504231603 | -18 | 262 | 4.8 | 6.4 | 0.00 | 0.25 | 0.00 | 10 | 1022.3 |
| 20260504230518 | -18 | 262 | 4.8 | 4.8 | 0.00 | 0.25 | 0.00 | 10 | 1022.3 |
| 20260504225519 | -18 | 211 | 4.8 | 4.8 | 0.00 | 0.25 | 0.00 | 10 | 1022.5 |
| 20260504224545 | -18 | 240 | 4.8 | 4.8 | 0.00 | 0.25 | 0.00 | 10 | 1022.6 |
| 20260504223543 | -18 | 204 | 6.4 | 9.7 | 0.00 | 0.25 | 0.00 | 10 | 1022.6 |
| 20260504222548 | -18 | 243 | 3.2 | 4.8 | 0.00 | 0.25 | 0.00 | 10 | 1022.7 |
| 20260504221537 | -18 | 217 | 6.4 | 8.0 | 0.00 | 0.25 | 0.00 | 10 | 1022.7 |
| 20260504220533 | -18 | 208 | 4.8 | 8.0 | 0.00 | 0.25 | 0.00 | 10 | 1022.7 |
| 20260504215552 | -18 | 204 | 6.4 | 9.7 | 0.00 | 0.25 | 0.25 | 10 | 1022.9 |
| 20260504214533 | -18 | 246 | 4.8 | 4.8 | 0.00 | 0.25 | 0.25 | 10 | 1023.0 |
| 20260504213556 | -18 | 176 | 6.4 | 9.7 | 0.00 | 0.25 | 0.25 | 10 | 1023.0 |
| 20260504212540 | -18 | 181 | 9.7 | 14.5 | 0.00 | 0.25 | 0.25 | 10 | 1023.2 |
| 20260504211549 | -18 | 193 | 8.0 | 9.7 | 0.00 | 0.25 | 0.25 | 10 | 1023.3 |
| 20260504210531 | -10 | 232 | 9.7 | 14.5 | 0.00 | 0.25 | 0.25 | 33 | 1023.5 |
| 20260504205515 | 10 | 18 | 3.2 | 3.2 | 0.05 | 0.25 | 0.25 | 87 | 1023.4 |
| 20260504204548 | 9 | 210 | 6.4 | 9.7 | 0.05 | 0.25 | 0.25 | 87 | 1023.5 |
| 20260504203548 | 9 | 215 | 8.0 | 9.7 | 0.05 | 0.25 | 0.25 | 87 | 1023.6 |
| 20260504202538 | 9 | 23 | 1.6 | 3.2 | 0.05 | 0.25 | 0.25 | 87 | 1023.6 |
| 20260504201524 | 10 | 229 | 3.2 | 9.7 | 0.10 | 0.25 | 0.25 | 87 | 1023.7 |
| 20260504200522 | 10 | 256 | 3.2 | 3.2 | 0.10 | 0.25 | 0.25 | 86 | 1023.6 |
| 20260504195543 | 10 | 191 | 8.0 | 11.3 | 0.05 | 0.20 | 0.20 | 86 | 1023.5 |
| 20260504194524 | 10 | 207 | 4.8 | 6.4 | 0.05 | 0.20 | 0.20 | 85 | 1023.5 |
| 20260504193544 | 10 | 213 | 4.8 | 6.4 | 0.05 | 0.20 | 0.20 | 85 | 1023.3 |
| 20260504192521 | 10 | 174 | 1.6 | 3.2 | 0.05 | 0.20 | 0.20 | 84 | 1023.3 |
| 20260504191549 | 10 | 270 | 0.0 | 3.2 | 0.00 | 0.15 | 0.15 | 83 | 1023.2 |
| 20260504190516 | 10 | 190 | 4.8 | 8.0 | 0.00 | 0.15 | 0.15 | 82 | 1023.1 |
| 20260504185523 | 10 | 0.0 | 0.0 | 0.00 | 0.15 | 0.15 | 82 | 1023.0 | |
| 20260504184524 | 11 | 219 | 4.8 | 6.4 | 0.05 | 0.15 | 0.15 | 83 | 1022.9 |
| 20260504183522 | 11 | 182 | 4.8 | 6.4 | 0.05 | 0.15 | 0.15 | 82 | 1023.0 |
| 20260504182523 | 11 | 202 | 8.0 | 8.0 | 0.05 | 0.15 | 0.15 | 82 | 1022.9 |
| 20260504181530 | 11 | 0 | 3.2 | 3.2 | 0.05 | 0.15 | 0.15 | 82 | 1022.8 |
| 20260504180527 | 11 | 23 | 1.6 | 3.2 | 0.10 | 0.15 | 0.15 | 82 | 1022.9 |
| 20260504175526 | 11 | 281 | 3.2 | 4.8 | 0.10 | 0.15 | 0.15 | 81 | 1023.1 |
| 20260504174527 | 11 | 4 | 3.2 | 4.8 | 0.05 | 0.10 | 0.10 | 81 | 1023.2 |
| 20260504173530 | 11 | 0 | 1.6 | 1.6 | 0.05 | 0.10 | 0.10 | 80 | 1023.1 |
| 20260504172556 | 12 | 276 | 4.8 | 6.4 | 0.05 | 0.10 | 0.10 | 79 | 1023.1 |
| 20260504171543 | 12 | 252 | 4.8 | 6.4 | 0.05 | 0.10 | 0.10 | 78 | 1023.2 |
| 20260504170515 | 13 | 294 | 3.2 | 4.8 | 0.00 | 0.05 | 0.05 | 77 | 1023.2 |
| 20260504150545 | 15 | 270 | 0.0 | 1.6 | 0.00 | 0.05 | 0.05 | 78 | 1022.9 |
| 20260504140528 | 16 | 225 | 1.6 | 3.2 | 0.00 | 0.05 | 0.05 | 75 | 1023.0 |